Find Starlink 4572

NORAD ID: 53692 Int'l Des: 2022-105 Owner: SPXS Country: US Constellation: starlink operational
LEOCIRCULARRETROGRADESSO

リアルタイム位置

3D地球を読み込み中...

Starlink 4572について

説明を読み込み中...

次回通過

Passes for default location (London). Set your location on the main map for personalized predictions.

高度履歴

Loading altitude history...

軌道要素

1 53692U 22105AW 26104.43876737 .00022254 00000-0 94322-3 0 9991
2 53692 97.6149 351.8452 0002578 99.7602 260.3925 15.23149589198996
Epoch: Apr 14, 2026 • Age: 12 hours

現在のステータス

高度 525.3 km
速度 7.60 km/s
衛星直下点 -75.42°S, 41.91°W
打ち上げ日 Aug 31, 2022
運用期間 3.6 years
タイプ internet

技術仕様

分類 Payload
質量 300.00 kg
乾燥質量 290.00 kg
総質量 300.00 kg
長さ 0.20 m
直径 2.80 m
スパン 9.00 m
形状 Box + pan
製造者 SPXS
バスタイプ Starlink
フェーズステータス In Orbit
所有者/国 SPXS/US

Most Searched